Lapse_Rate
6.4 6.7 6.8 7.1 7.1 7.1 6.8 6.8 6.9 7.0 7.1 7.1 6.9 6.8 6.7 6.5 6.3 6.2 6.1 5.9 5.8 5.6 5.6 5.6 5.7 5.7 5.9 5.9 6.0 6.0 6.0 5.8 5.7 5.7 5.7 5.7 6.0 6.2 6.2 6.1 6.0 5.9 5.8
7.0 6.8 6.6 6.6 6.7 6.7 6.8 6.9 6.8 7.0 6.9 6.9 6.9 6.8 6.7 6.5 6.3 6.1 6.1 5.9 5.8 5.7 5.7 5.9 5.9 6.0 6.0 5.9 6.0 6.0 6.0 5.9 5.9 5.9 5.9 6.2 6.5 6.5 6.5 6.4 6.1 5.9 5.8
6.8 6.9 6.6 6.3 6.2 6.4 6.6 6.8 6.8 6.9 6.9 6.8 6.7 6.9 6.8 6.5 6.4 6.2 6.1 5.9 5.8 5.9 5.9 6.0 6.0 6.0 6.0 6.0 6.0 6.1 6.1 6.2 6.2 6.4 6.6 6.6 6.6 6.6 6.6 6.5 6.3 6.1 6.0
6.5 6.7 6.8 6.8 6.6 6.5 6.5 6.6 6.6 6.7 6.8 6.8 6.5 6.5 6.6 6.4 6.2 6.0 5.9 5.9 5.8 5.9 5.9 6.0 6.0 6.0 6.0 6.1 6.1 6.2 6.3 6.3 6.5 6.6 6.6 6.6 6.7 6.8 6.7 6.7 6.5 6.4 6.2
6.3 6.3 6.5 6.6 6.9 6.8 6.6 6.7 6.7 6.7 6.7 6.6 6.6 6.4 6.3 6.1 6.0 5.9 5.9 6.0 5.8 5.9 6.0 6.0 6.0 6.0 6.0 6.2 6.3 6.3 6.3 6.5 6.6 6.6 6.6 6.7 6.8 6.8 6.9 6.8 6.7 6.5 6.3
6.4 6.5 6.5 6.9 6.8 6.8 6.9 6.8 6.6 6.5 6.4 6.4 6.4 6.4 6.2 6.0 6.1 5.8 5.8 5.9 6.0 5.9 6.0 6.1 6.1 6.1 6.2 6.3 6.2 6.3 6.4 6.5 6.5 6.5 6.7 6.7 6.8 6.8 6.8 6.8 6.7 6.6 6.6
6.1 6.1 6.2 6.3 6.5 6.6 6.4 6.5 6.3 6.2 6.2 6.2 6.3 6.3 6.0 5.9 5.8 5.8 5.8 5.9 5.8 6.1 6.1 6.1 6.2 6.2 6.2 6.1 6.2 6.3 6.4 6.5 6.5 6.5 6.6 6.6 6.7 6.8 6.7 6.8 6.8 6.8 6.8
5.9 5.9 6.0 6.1 6.1 6.4 6.3 6.3 6.4 6.2 6.1 6.0 6.1 6.0 5.9 5.9 5.8 5.8 5.8 5.9 6.0 6.0 6.2 6.1 6.2 6.2 6.1 6.2 6.2 6.3 6.4 6.3 6.3 6.4 6.4 6.5 6.6 6.7 6.8 6.7 6.7 6.6 6.6
5.6 5.5 5.5 5.6 6.0 6.1 6.1 6.3 6.2 6.0 6.0 5.8 5.9 5.9 5.8 5.8 5.7 5.7 5.7 5.9 6.0 6.0 6.1 6.1 6.1 6.1 6.1 6.1 6.1 6.2 6.2 6.2 6.2 6.2 6.3 6.4 6.6 6.6 6.6 6.6 6.5 6.4 6.3
5.4 5.1 5.2 5.5 5.8 6.1 5.9 5.9 5.8 5.7 5.8 5.8 5.8 5.7 5.6 5.6 5.5 5.6 5.8 6.0 6.0 6.1 6.1 6.1 6.1 6.1 6.1 6.1 6.1 6.1 6.1 6.1 6.1 6.2 6.4 6.4 6.5 6.5 6.5 6.4 6.4 6.2 6.1
5.6 5.6 5.5 5.8 5.7 5.8 5.9 5.8 5.6 5.5 5.6 5.6 5.5 5.5 5.5 5.4 5.5 5.7 5.8 6.0 6.0 6.1 6.1 6.1 6.1 6.1 6.1 6.1 6.0 6.0 6.0 6.0 6.2 6.3 6.2 6.2 6.3 6.3 6.3 6.2 6.2 6.2 6.1
5.6 5.4 4.8 4.9 4.9 5.2 5.7 5.4 5.3 5.4 5.3 5.4 5.3 5.3 5.3 5.3 5.5 5.7 5.8 6.0 6.1 6.1 6.1 6.1 6.1 6.1 6.1 6.0 6.1 6.0 6.0 6.1 6.1 6.1 6.0 6.1 6.1 6.1 6.1 6.1 6.1 6.2 6.1
5.6 4.7 4.2 4.3 4.5 4.9 5.4 5.5 5.6 5.3 5.1 5.1 5.2 5.1 5.2 5.4 5.6 5.8 5.9 6.0 6.1 6.1 6.1 6.1 6.1 6.0 6.0 6.0 5.9 5.9 6.0 5.9 6.0 5.9 5.9 5.9 6.0 6.0 6.1 6.1 6.1 6.1 6.0
5.6 4.9 4.4 4.2 3.9 4.3 4.9 5.1 5.2 5.1 5.1 5.0 4.9 5.1 5.3 5.5 5.7 5.9 6.0 6.0 6.1 6.1 6.1 6.1 5.9 5.8 5.9 5.9 5.8 5.9 5.8 5.8 5.8 5.8 5.8 5.8 5.8 5.9 6.0 6.1 6.1 6.0 6.0
5.6 5.1 4.8 4.4 4.2 4.6 4.8 5.1 5.1 5.2 5.2 5.1 5.2 5.4 5.5 5.7 5.8 5.9 6.0 6.0 6.0 6.0 6.1 5.9 5.8 5.9 5.8 5.8 5.8 5.8 5.8 5.7 5.7 5.8 5.8 5.7 5.7 5.9 6.0 6.1 6.1 6.0 5.9
5.9 5.2 4.8 4.6 4.5 4.8 5.0 5.2 5.1 5.1 5.1 5.2 5.3 5.5 5.7 5.8 5.9 6.0 6.0 6.0 6.0 6.0 6.0 5.9 5.9 5.8 5.8 5.8 5.7 5.7 5.7 5.6 5.6 5.7 5.6 5.5 5.5 5.7 5.9 6.0 6.1 6.0 5.9
6.0 6.0 5.6 4.9 4.7 4.8 5.0 5.1 5.1 5.2 5.3 5.4 5.6 5.7 5.8 5.9 6.0 6.1 6.1 6.1 6.1 6.0 6.0 6.0 5.9 5.8 5.7 5.7 5.7 5.6 5.6 5.7 5.7 5.7 5.6 5.5 5.6 5.8 6.0 6.0 6.0 6.0 5.8
6.0 6.0 6.0 5.4 5.1 5.1 5.2 5.2 5.3 5.4 5.4 5.6 5.7 5.9 5.9 6.0 6.0 6.1 6.1 6.1 6.1 6.1 6.0 5.9 5.8 5.7 5.7 5.6 5.6 5.5 5.6 5.5 5.5 5.5 5.6 5.6 5.7 5.8 5.8 5.9 6.0 6.0 5.8
6.0 5.9 5.9 6.0 5.8 5.5 5.4 5.4 5.5 5.6 5.6 5.7 5.8 5.9 6.0 6.1 6.0 6.0 6.0 6.0 6.0 6.0 5.9 5.8 5.8 5.7 5.6 5.6 5.5 5.4 5.4 5.3 5.3 5.5 5.6 5.6 5.7 5.7 5.7 5.8 5.9 5.9 5.9
6.0 6.0 6.0 6.0 5.9 5.7 5.6 5.5 5.6 5.8 5.9 5.9 6.0 5.9 6.0 6.1 6.0 6.0 6.1 6.0 5.9 5.8 5.8 5.7 5.6 5.6 5.5 5.5 5.4 5.3 5.1 5.1 5.2 5.4 5.5 5.5 5.5 5.5 5.6 5.8 5.9 5.9 6.0
5.9 5.9 5.9 6.0 6.0 5.8 5.7 5.7 5.5 5.7 5.8 5.9 5.9 5.9 6.1 6.2 5.9 5.9 5.9 5.8 5.6 5.6 5.6 5.5 5.5 5.4 5.1 5.3 5.1 4.8 4.6 4.7 5.0 5.2 5.2 5.3 5.3 5.4 5.6 5.7 5.8 5.8 5.8
5.7 5.8 5.9 5.9 6.0 6.0 5.7 5.7 5.7 5.6 5.7 5.8 5.7 5.7 5.9 6.0 5.8 5.7 5.7 5.7 5.6 5.5 5.5 5.5 5.3 5.1 4.7 4.7 4.5 4.4 4.5 4.6 4.9 4.9 5.0 5.0 5.1 5.3 5.4 5.5 5.6 5.6 5.5
5.4 5.5 5.5 5.7 5.7 5.7 5.8 5.8 5.7 5.7 5.7 5.7 5.7 5.6 5.8 5.9 5.6 5.3 5.2 5.3 5.4 5.4 5.2 5.0 4.6 4.3 4.4 4.5 4.5 4.5 4.6 4.7 4.8 4.7 4.9 5.0 5.1 5.1 5.3 5.4 5.5 5.4 5.3
5.2 5.3 5.2 5.3 5.4 5.5 5.6 5.6 5.6 5.6 5.6 5.5 5.5 5.3 5.2 5.3 5.4 5.2 5.0 5.1 5.2 5.2 5.1 5.0 4.9 4.6 4.6 4.5 4.5 4.6 4.8 4.8 4.6 4.7 4.8 4.9 5.0 5.0 5.2 5.2 5.2 5.1 5.0
4.9 4.9 5.0 5.1 5.2 5.4 5.5 5.4 5.4 5.6 5.6 5.7 5.7 5.6 5.5 5.5 5.6 5.5 5.5 5.3 5.2 5.3 5.3 5.2 5.0 4.7 4.7 4.6 4.7 4.8 4.9 4.6 4.5 4.5 4.7 4.9 5.0 5.0 5.0 5.1 5.1 5.1 4.9
5.0 5.1 5.1 5.1 5.3 5.2 5.2 5.4 5.4 5.4 5.4 5.5 5.5 5.5 5.5 5.5 5.4 5.4 5.3 5.2 5.3 5.3 5.2 5.0 4.8 4.7 4.7 4.9 4.9 5.0 4.7 4.4 4.4 4.6 4.8 4.9 4.9 5.0 5.0 5.0 4.9 5.0 4.8
Wind_Speed
7 6 6 5 5 5 5 4 4 3 4 4 4 5 5 5 4 6 6 6 7 7 6 8 6 5 3 3 3 3 3 2 1 1 2 4 3 3 5 6 7 6 6
6 7 6 6 5 5 5 4 4 4 4 4 4 5 5 5 4 6 7 6 7 7 8 8 6 4 6 4 3 4 4 2 1 3 1 2 3 4 4 4 4 3 3
5 6 6 6 6 5 4 4 4 4 5 5 5 6 6 5 7 6 7 8 8 8 7 7 6 6 6 5 5 4 3 2 2 3 3 1 2 2 2 2 1 2 2
7 4 5 4 5 5 4 4 4 5 5 6 6 7 7 7 7 7 8 9 9 8 8 8 7 7 7 6 4 4 4 4 4 5 3 2 2 2 1 1 1 2 2
6 7 5 5 5 6 5 6 5 5 5 6 7 7 7 6 5 8 9 11 11 11 9 8 7 10 11 6 3 4 4 4 4 3 3 2 2 1 0 1 1 2 1
5 6 6 6 5 6 6 6 6 6 6 6 6 7 7 5 11 13 11 10 9 9 8 7 7 11 8 10 10 11 7 4 4 2 2 2 2 1 1 0 1 2 1
6 6 7 7 6 5 5 5 6 6 5 5 6 8 8 7 12 14 14 7 7 6 6 6 6 5 7 6 10 11 11 10 7 3 3 2 2 2 1 1 1 1 2
8 8 7 6 6 5 5 5 4 4 5 4 5 5 5 7 13 14 14 8 7 6 6 6 6 6 5 5 5 6 5 6 5 4 4 3 2 3 2 1 1 2 3
8 8 8 7 7 6 6 5 5 5 4 3 4 5 6 7 13 14 10 8 7 6 6 6 5 4 7 7 5 5 4 3 5 6 5 5 2 1 5 3 1 2 2
8 8 8 7 7 6 6 5 3 4 5 4 5 5 9 7 11 12 8 5 7 5 4 4 7 4 5 6 4 3 4 3 2 2 2 3 5 6 7 2 1 1 1
6 6 6 6 6 6 6 3 5 5 5 5 6 4 5 5 7 9 9 4 5 4 4 3 1 3 3 4 5 3 3 4 3 2 2 2 3 4 4 3 2 1 1
7 7 7 6 5 6 7 6 6 7 6 6 6 4 3 2 6 7 8 7 7 4 4 3 3 4 4 4 5 5 7 5 3 2 2 2 2 1 2 3 2 2 4
8 7 7 7 6 7 7 7 5 6 6 6 5 5 4 3 1 7 9 9 9 4 3 5 5 5 6 3 5 5 7 3 2 2 2 1 1 1 2 3 4 5 6
9 8 7 7 7 7 5 6 6 7 6 6 6 5 4 4 4 3 2 3 7 5 6 3 3 4 6 4 3 3 2 3 3 3 3 2 2 2 3 3 3 4 4
8 7 7 6 7 6 6 6 7 6 7 6 5 5 6 5 6 9 8 5 5 5 5 2 2 2 3 3 3 3 3 3 4 3 3 2 2 3 3 3 2 2 3
8 6 7 6 6 6 5 4 12 10 14 12 10 8 5 7 9 14 15 12 11 11 3 2 3 3 4 4 4 4 4 5 4 4 3 3 3 4 4 4 2 2 5
8 7 6 7 6 6 6 7 7 7 13 14 15 14 13 9 12 12 14 13 12 10 4 4 3 4 4 4 4 4 4 4 3 4 4 4 4 4 5 5 4 4 5
7 14 7 7 7 7 7 7 6 6 7 5 8 13 14 13 13 13 14 12 4 7 3 5 5 5 5 5 5 5 5 4 4 5 5 5 5 5 5 6 6 5 6
7 6 6 6 6 8 6 6 6 6 5 3 2 5 11 14 14 14 16 6 6 5 5 5 5 5 5 5 5 5 6 5 5 5 5 6 6 6 6 6 7 11 11
7 13 10 6 6 6 6 7 7 6 6 6 6 6 3 7 5 7 7 5 6 6 5 6 6 6 6 6 6 5 5 5 6 5 6 6 6 7 7 7 7 8 7
6 7 13 6 6 7 7 8 7 6 7 7 8 7 14 7 7 7 7 7 8 7 7 6 6 6 6 6 6 6 6 6 6 6 6 6 6 6 8 8 7 8 8
6 6 7 7 6 7 8 7 7 8 8 8 7 7 18 9 7 7 7 8 8 8 7 6 6 6 6 6 6 6 7 7 6 6 6 6 6 7 7 8 8 8 8
6 7 7 7 8 10 8 7 8 8 9 9 8 7 7 9 9 8 9 8 7 7 10 10 6 5 10 11 12 11 7 7 7 7 6 6 6 6 6 7 8 9 9
7 8 8 8 7 8 8 9 9 13 10 9 8 8 8 8 9 10 9 7 7 7 11 11 11 11 10 12 12 14 14 13 12 12 11 6 6 7 7 8 8 10 9
6 7 7 8 8 8 8 9 9 9 9 9 8 8 8 8 9 9 8 8 7 7 7 12 12 13 15 16 14 16 17 16 15 14 10 10 8 8 8 8 9 9 11
6 7 7 6 7 7 8 8 9 9 9 9 9 9 9 9 9 9 8 8 7 7 8 11 13 16 16 15 17 18 17 17 17 17 14 11 8 8 8 10 12 9 11
Wind_Direction
112 105 97 82 73 74 75 66 62 56 47 59 64 74 73 79 89 107 110 120 125 115 111 98 87 87 84 68 64 73 78 67 155 100 68 30 44 46 30 21 15 11 11
119 115 105 99 84 71 60 51 54 65 53 60 79 82 76 77 84 113 118 117 117 115 107 104 109 112 89 73 76 77 72 55 142 137 108 68 69 53 54 42 18 22 7
123 121 117 108 103 89 80 72 75 87 81 73 82 90 87 86 95 94 104 103 99 98 102 107 108 104 87 82 71 79 85 85 89 123 117 120 71 63 76 82 37 352 357
136 126 120 113 110 104 97 83 80 85 98 92 88 91 93 92 95 101 103 101 94 86 85 89 90 94 101 91 92 91 88 90 87 99 104 104 98 80 68 6 170 24 353
143 131 130 124 118 108 104 90 85 78 89 99 101 96 96 98 101 107 105 107 106 99 92 92 99 107 99 102 115 97 94 90 83 91 100 114 109 134 184 22 351 328 7
145 139 134 132 130 129 119 109 104 98 91 100 102 101 99 107 121 120 119 114 109 111 103 87 75 66 89 106 94 89 78 93 94 100 106 122 125 142 178 57 354 342 321
153 156 157 158 157 146 131 127 124 114 110 103 98 105 109 111 125 128 116 99 101 95 104 105 92 89 87 80 83 74 66 81 78 113 126 135 155 183 135 160 42 339 302
172 170 169 162 155 149 140 133 123 118 119 116 91 90 101 111 122 125 115 102 103 104 112 107 116 113 100 101 105 93 81 67 85 95 99 132 134 168 195 147 149 300 286
178 176 175 170 160 157 151 143 130 120 109 104 109 100 101 114 124 125 122 115 115 116 110 115 110 106 107 102 110 116 119 91 68 102 104 104 72 199 197 171 260 310 315
185 181 170 166 158 157 153 138 98 129 124 122 106 111 127 125 133 137 134 129 125 121 119 115 128 122 109 120 112 136 147 147 121 95 75 69 64 73 69 68 124 286 305
158 159 159 159 154 152 140 127 134 130 124 128 125 125 129 143 150 152 149 142 144 146 153 155 134 125 118 127 133 156 150 154 120 118 114 107 95 82 69 60 87 125 269
155 157 155 152 157 155 153 146 145 143 145 147 145 140 132 118 166 152 147 147 156 159 164 161 170 164 145 153 157 183 149 138 140 141 137 124 116 89 45 4 332 272 261
157 161 158 159 161 162 161 156 154 153 165 169 175 173 166 171 194 187 165 160 156 154 164 173 181 198 161 152 176 171 142 151 157 161 149 143 136 132 278 292 291 287 289
172 168 163 165 163 164 163 164 168 177 177 184 189 188 186 191 201 193 157 160 171 163 174 163 176 166 170 169 148 138 160 178 183 177 171 171 193 252 283 285 280 302 295
175 170 172 175 174 168 175 176 187 195 190 186 198 190 188 207 214 201 192 192 187 191 154 149 160 177 185 182 177 184 189 193 187 185 193 204 246 271 281 283 281 301 287
181 178 177 177 169 175 173 173 206 207 208 214 210 200 212 220 211 203 201 197 191 187 165 179 195 206 205 198 202 207 211 216 211 207 211 220 257 270 275 275 238 274 293
191 182 182 182 177 175 175 185 195 223 222 223 228 222 216 212 212 202 198 200 202 200 202 203 209 209 216 211 214 215 216 214 203 207 215 230 239 249 271 272 270 277 283
196 192 187 183 182 179 181 192 198 194 199 214 237 217 218 212 209 204 200 199 207 215 197 215 220 219 220 220 220 219 224 224 219 222 226 232 238 251 260 267 264 265 277
191 197 188 180 184 188 179 188 203 204 206 196 204 241 216 214 212 211 209 206 209 212 211 221 222 216 219 224 227 225 225 226 222 225 231 236 240 243 256 267 271 275 273
197 200 189 184 187 189 184 193 201 206 209 213 215 216 187 208 209 211 215 206 210 222 209 217 219 217 219 219 223 221 225 229 234 229 235 241 243 239 251 253 270 272 269
198 199 202 195 193 194 193 201 206 205 213 215 224 210 204 201 215 215 218 219 221 221 216 215 217 218 218 218 217 219 219 230 229 232 237 240 239 245 248 253 267 264 263
195 199 203 196 199 201 202 202 203 209 215 217 223 216 220 214 216 218 220 223 222 222 219 213 216 212 210 210 208 213 218 221 225 225 233 232 235 242 246 249 256 259 261
200 199 205 209 199 203 215 212 209 212 218 219 219 217 207 217 219 216 221 223 217 216 213 208 214 215 209 214 212 211 211 215 215 208 219 230 231 236 239 248 252 256 259
208 207 211 214 206 205 208 210 216 222 222 222 217 217 216 216 218 220 219 219 214 214 209 209 211 215 210 214 213 217 221 224 217 216 213 219 232 242 243 247 250 254 258
220 217 217 219 217 216 218 218 214 214 219 222 222 224 224 220 218 217 216 211 209 209 212 210 211 217 216 216 214 222 229 228 226 225 219 220 230 227 236 241 245 251 252
244 230 229 225 223 220 221 221 222 215 215 217 217 218 224 225 226 220 212 205 206 210 208 206 210 213 216 219 226 231 230 232 234 234 220 221 228 234 235 238 243 248 252